| time (UTC) | temp F | wind direction | speed knots | gust knots | rain 1hr in | rain 24hr in | rain mn in | humidity % | barometer mb |
| 20260506211445 | 33 | 212 | 0.0 | 0.0 | 0.00 | 0.00 | 0.00 | 86 | 1023.2 |
| 20260506210943 | 33 | 196 | 0.0 | 0.0 | 0.00 | 0.00 | 0.00 | 84 | 1023.5 |
| 20260506210439 | 32 | 259 | 0.0 | 0.0 | 0.00 | 0.00 | 0.00 | 89 | 1023.5 |
| 20260506205936 | 32 | 244 | 0.0 | 0.0 | 0.00 | 0.00 | 0.00 | 89 | 1023.6 |
| 20260506205432 | 33 | 208 | 0.0 | 0.0 | 0.00 | 0.00 | 0.00 | 86 | 1023.5 |
| 20260506204928 | 33 | 191 | 0.0 | 0.0 | 0.00 | 0.00 | 0.00 | 83 | 1023.7 |
| 20260506204427 | 33 | 260 | 0.0 | 0.0 | 0.00 | 0.00 | 0.00 | 83 | 1023.7 |
| 20260506203924 | 31 | 271 | 0.0 | 0.0 | 0.00 | 0.00 | 0.00 | 85 | 1023.5 |
| 20260506203421 | 31 | 283 | 0.0 | 0.0 | 0.00 | 0.00 | 0.00 | 86 | 1024.1 |
| 20260506202917 | 31 | 285 | 0.0 | 0.0 | 0.00 | 0.00 | 0.00 | 85 | 1023.8 |
| 20260506202414 | 31 | 288 | 0.0 | 0.0 | 0.00 | 0.00 | 0.00 | 87 | 1023.7 |
| 20260506201911 | 30 | 295 | 0.0 | 0.0 | 0.00 | 0.00 | 0.00 | 92 | 1024.0 |
| 20260506201409 | 30 | 297 | 0.0 | 0.0 | 0.00 | 0.00 | 0.00 | 93 | 1024.1 |
| 20260506200905 | 29 | 297 | 0.0 | 0.0 | 0.00 | 0.00 | 0.00 | 94 | 1024.1 |
| 20260506200401 | 29 | 298 | 0.0 | 0.0 | 0.00 | 0.00 | 0.00 | 93 | 1024.2 |
| 20260506195858 | 29 | 298 | 0.0 | 0.0 | 0.00 | 0.00 | 0.00 | 94 | 1024.0 |
| 20260506195355 | 28 | 298 | 0.0 | 0.0 | 0.00 | 0.00 | 0.00 | 93 | 1024.0 |
| 20260506194852 | 28 | 299 | 0.0 | 0.0 | 0.00 | 0.00 | 0.00 | 93 | 1024.1 |
| 20260506194349 | 29 | 299 | 0.0 | 0.0 | 0.00 | 0.00 | 0.00 | 93 | 1024.0 |
| 20260506193846 | 29 | 269 | 0.0 | 0.0 | 0.00 | 0.00 | 0.00 | 93 | 1024.1 |
| 20260506193342 | 29 | 269 | 0.0 | 0.0 | 0.00 | 0.00 | 0.00 | 91 | 1024.0 |
| 20260506192838 | 29 | 269 | 0.0 | 0.0 | 0.00 | 0.00 | 0.00 | 92 | 1024.1 |
| 20260506192336 | 30 | 270 | 0.0 | 0.0 | 0.00 | 0.00 | 0.00 | 91 | 1024.2 |
| 20260506191833 | 29 | 269 | 0.0 | 0.0 | 0.00 | 0.00 | 0.00 | 90 | 1024.0 |
| 20260506191329 | 30 | 269 | 0.0 | 0.0 | 0.00 | 0.00 | 0.00 | 91 | 1024.2 |
| 20260506190826 | 30 | 269 | 0.0 | 0.0 | 0.00 | 0.00 | 0.00 | 91 | 1024.1 |
| 20260506190322 | 31 | 269 | 0.0 | 0.0 | 0.00 | 0.00 | 0.00 | 90 | 1024.4 |
| 20260506185820 | 30 | 264 | 0.0 | 0.0 | 0.00 | 0.00 | 0.00 | 91 | 1024.1 |
| 20260506185316 | 30 | 265 | 0.0 | 0.0 | 0.00 | 0.00 | 0.00 | 91 | 1024.4 |
| 20260506184813 | 30 | 267 | 0.0 | 0.0 | 0.00 | 0.00 | 0.00 | 92 | 1024.1 |
| 20260506184311 | 29 | 268 | 0.0 | 0.0 | 0.00 | 0.00 | 0.00 | 92 | 1024.2 |
| 20260506183808 | 29 | 270 | 0.0 | 0.0 | 0.00 | 0.00 | 0.00 | 93 | 1024.5 |
| 20260506183303 | 28 | 271 | 0.0 | 0.0 | 0.00 | 0.00 | 0.00 | 92 | 1024.6 |
| 20260506182800 | 28 | 271 | 0.0 | 0.0 | 0.00 | 0.00 | 0.00 | 93 | 1024.5 |
| 20260506182257 | 29 | 271 | 0.0 | 0.0 | 0.00 | 0.00 | 0.00 | 92 | 1024.4 |
| 20260506181755 | 28 | 273 | 0.0 | 0.0 | 0.00 | 0.00 | 0.00 | 93 | 1024.2 |
| 20260506181253 | 28 | 273 | 0.0 | 0.0 | 0.00 | 0.00 | 0.00 | 95 | 1024.5 |
| 20260506180750 | 28 | 274 | 0.0 | 0.0 | 0.00 | 0.00 | 0.00 | 94 | 1024.5 |
| 20260506180246 | 28 | 274 | 0.0 | 0.0 | 0.00 | 0.00 | 0.00 | 94 | 1024.4 |
| 20260506175742 | 28 | 274 | 0.0 | 0.0 | 0.00 | 0.00 | 0.00 | 94 | 1024.6 |
| 20260506175239 | 28 | 274 | 0.0 | 0.0 | 0.00 | 0.00 | 0.00 | 94 | 1024.4 |
| 20260506174737 | 27 | 274 | 0.0 | 0.0 | 0.00 | 0.00 | 0.00 | 95 | 1024.5 |
| 20260506174233 | 27 | 274 | 0.0 | 0.0 | 0.00 | 0.00 | 0.00 | 95 | 1024.6 |
| 20260506173732 | 27 | 275 | 0.0 | 0.0 | 0.00 | 0.00 | 0.00 | 95 | 1024.7 |
| 20260506173228 | 27 | 275 | 0.0 | 0.0 | 0.00 | 0.00 | 0.00 | 96 | 1024.2 |
| 20260506172724 | 27 | 275 | 0.0 | 0.0 | 0.00 | 0.00 | 0.00 | 96 | 1024.4 |
| 20260506172221 | 27 | 275 | 0.0 | 0.0 | 0.00 | 0.00 | 0.00 | 96 | 1024.1 |
| 20260506171719 | 27 | 275 | 0.0 | 0.0 | 0.00 | 0.00 | 0.00 | 96 | 1024.4 |
| 20260506171216 | 27 | 275 | 0.0 | 0.0 | 0.00 | 0.00 | 0.00 | 96 | 1024.2 |
| 20260506170713 | 26 | 275 | 0.0 | 0.0 | 0.00 | 0.00 | 0.00 | 96 | 1024.2 |
| 20260506170210 | 26 | 275 | 0.0 | 0.0 | 0.00 | 0.00 | 0.00 | 96 | 1024.1 |
| 20260506165709 | 26 | 275 | 0.0 | 0.0 | 0.00 | 0.00 | 0.00 | 96 | 1024.1 |
| 20260506165205 | 26 | 275 | 0.0 | 0.0 | 0.00 | 0.00 | 0.00 | 96 | 1024.0 |
| 20260506164702 | 26 | 275 | 0.0 | 0.0 | 0.00 | 0.00 | 0.00 | 96 | 1024.0 |
| 20260506164159 | 26 | 275 | 0.0 | 0.0 | 0.00 | 0.00 | 0.00 | 95 | 1023.6 |
| 20260506163655 | 27 | 275 | 0.0 | 0.0 | 0.00 | 0.00 | 0.00 | 95 | 1023.6 |
| 20260506163151 | 28 | 275 | 0.0 | 0.0 | 0.00 | 0.00 | 0.00 | 95 | 1023.5 |
| 20260506162647 | 28 | 275 | 0.0 | 0.0 | 0.00 | 0.00 | 0.00 | 95 | 1023.5 |
| 20260506162145 | 28 | 275 | 0.0 | 0.0 | 0.00 | 0.00 | 0.00 | 96 | 1023.5 |
| 20260506161642 | 27 | 275 | 0.0 | 0.0 | 0.00 | 0.00 | 0.00 | 96 | 1023.3 |
| 20260506161138 | 27 | 275 | 0.0 | 0.0 | 0.00 | 0.00 | 0.00 | 96 | 1023.3 |
| 20260506160636 | 26 | 275 | 0.0 | 0.0 | 0.00 | 0.00 | 0.00 | 97 | 1023.5 |
| 20260506160133 | 26 | 275 | 0.0 | 0.0 | 0.00 | 0.00 | 0.00 | 97 | 1023.3 |
| 20260506155632 | 26 | 275 | 0.0 | 0.0 | 0.00 | 0.00 | 0.00 | 97 | 1023.6 |
| 20260506155128 | 25 | 275 | 0.0 | 0.0 | 0.00 | 0.00 | 0.00 | 98 | 1023.1 |
| 20260506153230 | 25 | 275 | 0.0 | 0.0 | 0.00 | 0.00 | 0.00 | 98 | 1023.1 |
| 20260506152727 | 26 | 275 | 0.0 | 0.0 | 0.00 | 0.00 | 0.00 | 99 | 1023.2 |
| 20260506152225 | 26 | 275 | 0.0 | 0.0 | 0.00 | 0.00 | 0.00 | 99 | 1023.2 |
| 20260506151724 | 26 | 275 | 0.0 | 0.0 | 0.00 | 0.00 | 0.00 | 99 | 1023.1 |
| 20260506151219 | 26 | 275 | 0.0 | 0.0 | 0.00 | 0.00 | 0.00 | 99 | 1023.0 |
| 20260506150716 | 26 | 275 | 0.0 | 0.0 | 0.00 | 0.00 | 0.00 | 99 | 1022.8 |
| 20260506150213 | 26 | 275 | 0.0 | 0.0 | 0.00 | 0.00 | 0.00 | 99 | 1023.1 |
| 20260506145710 | 25 | 275 | 0.0 | 0.0 | 0.00 | 0.00 | 0.00 | 99 | 1023.0 |
| 20260506145207 | 25 | 275 | 0.0 | 0.0 | 0.00 | 0.00 | 0.00 | 99 | 1022.8 |
| 20260506144704 | 25 | 275 | 0.0 | 0.0 | 0.00 | 0.00 | 0.00 | 99 | 1023.0 |
| 20260506144201 | 25 | 275 | 0.0 | 0.0 | 0.00 | 0.00 | 0.00 | 99 | 1023.0 |
| 20260506143659 | 25 | 275 | 0.0 | 0.0 | 0.00 | 0.00 | 0.00 | 99 | 1022.8 |
| 20260506143156 | 25 | 276 | 0.0 | 0.0 | 0.00 | 0.00 | 0.00 | 99 | 1022.5 |
| 20260506142655 | 25 | 276 | 0.0 | 0.0 | 0.00 | 0.00 | 0.00 | 99 | 1022.8 |
| 20260506142152 | 25 | 276 | 0.0 | 0.0 | 0.00 | 0.00 | 0.00 | 99 | 1022.5 |
| 20260506141650 | 25 | 276 | 0.0 | 0.0 | 0.00 | 0.00 | 0.00 | 99 | 1022.6 |
| 20260506141148 | 25 | 276 | 0.0 | 0.0 | 0.00 | 0.00 | 0.00 | 99 | 1022.3 |
| 20260506140645 | 25 | 276 | 0.0 | 0.0 | 0.00 | 0.00 | 0.00 | 99 | 1022.8 |
| 20260506140142 | 25 | 276 | 0.0 | 0.0 | 0.00 | 0.00 | 0.00 | 99 | 1022.3 |
| 20260506135639 | 25 | 276 | 0.0 | 0.0 | 0.00 | 0.00 | 0.00 | 99 | 1022.6 |
| 20260506135135 | 25 | 276 | 0.0 | 0.0 | 0.00 | 0.00 | 0.00 | 99 | 1022.2 |
| 20260506134632 | 25 | 276 | 0.0 | 0.0 | 0.00 | 0.00 | 0.00 | 99 | 1022.6 |
| 20260506134128 | 24 | 276 | 0.0 | 0.0 | 0.00 | 0.00 | 0.00 | 99 | 1022.2 |
| 20260506133625 | 24 | 277 | 0.0 | 0.0 | 0.00 | 0.00 | 0.00 | 99 | 1022.1 |
| 20260506133122 | 24 | 277 | 0.0 | 0.0 | 0.00 | 0.00 | 0.00 | 99 | 1022.3 |
| 20260506132620 | 24 | 277 | 0.0 | 0.0 | 0.00 | 0.00 | 0.00 | 99 | 1022.2 |
| 20260506132116 | 24 | 277 | 0.0 | 0.0 | 0.00 | 0.00 | 0.00 | 99 | 1021.8 |
| 20260506131614 | 24 | 277 | 0.0 | 0.0 | 0.00 | 0.00 | 0.00 | 99 | 1022.1 |
| 20260506131110 | 24 | 277 | 0.0 | 0.0 | 0.00 | 0.00 | 0.00 | 99 | 1022.3 |
| 20260506130607 | 24 | 277 | 0.0 | 0.0 | 0.00 | 0.00 | 0.00 | 99 | 1022.2 |
| 20260506130104 | 24 | 277 | 0.0 | 0.0 | 0.00 | 0.00 | 0.00 | 99 | 1021.7 |
| 20260506125603 | 24 | 277 | 0.0 | 0.0 | 0.00 | 0.00 | 0.00 | 99 | 1022.0 |
| 20260506125100 | 24 | 277 | 0.0 | 0.0 | 0.00 | 0.00 | 0.00 | 99 | 1021.7 |
| 20260506124557 | 24 | 277 | 0.0 | 0.0 | 0.00 | 0.00 | 0.00 | 99 | 1021.4 |
| 20260506124055 | 24 | 277 | 0.0 | 0.0 | 0.00 | 0.00 | 0.00 | 99 | 1021.6 |
| 20260506123552 | 24 | 277 | 0.0 | 0.0 | 0.00 | 0.00 | 0.00 | 99 | 1021.4 |
| 20260506123051 | 24 | 277 | 0.0 | 0.0 | 0.00 | 0.00 | 0.00 | 99 | 1021.3 |
| 20260506122547 | 24 | 277 | 0.0 | 0.0 | 0.00 | 0.00 | 0.00 | 99 | 1021.1 |
| 20260506122046 | 24 | 277 | 0.0 | 0.0 | 0.00 | 0.00 | 0.00 | 99 | 1021.2 |
| 20260506121543 | 24 | 277 | 0.0 | 0.0 | 0.00 | 0.00 | 0.00 | 99 | 1021.3 |
| 20260506121038 | 24 | 277 | 0.0 | 0.0 | 0.00 | 0.00 | 0.00 | 99 | 1020.9 |
| 20260506120537 | 24 | 277 | 0.0 | 0.0 | 0.00 | 0.00 | 0.00 | 99 | 1021.3 |
| 20260506120034 | 24 | 277 | 0.0 | 0.0 | 0.00 | 0.00 | 0.00 | 99 | 1020.9 |
| 20260506115532 | 24 | 277 | 0.0 | 0.0 | 0.00 | 0.00 | 0.00 | 99 | 1020.9 |
| 20260506115030 | 24 | 277 | 0.0 | 0.0 | 0.00 | 0.00 | 0.00 | 99 | 1021.3 |
| 20260506114527 | 24 | 277 | 0.0 | 0.0 | 0.00 | 0.00 | 0.00 | 99 | 1020.9 |
| 20260506114026 | 24 | 277 | 0.0 | 0.0 | 0.00 | 0.00 | 0.00 | 99 | 1021.2 |
| 20260506113523 | 24 | 277 | 0.0 | 0.0 | 0.00 | 0.00 | 0.00 | 99 | 1020.9 |
| 20260506113020 | 24 | 277 | 0.0 | 0.0 | 0.00 | 0.00 | 0.00 | 99 | 1021.2 |
| 20260506112516 | 24 | 277 | 0.0 | 0.0 | 0.00 | 0.00 | 0.00 | 99 | 1020.9 |
| 20260506112014 | 24 | 277 | 0.0 | 0.0 | 0.00 | 0.00 | 0.00 | 99 | 1020.9 |
| 20260506111512 | 24 | 277 | 0.0 | 0.0 | 0.00 | 0.00 | 0.00 | 99 | 1020.9 |
| 20260506111009 | 24 | 277 | 0.0 | 0.0 | 0.00 | 0.00 | 0.00 | 99 | 1020.9 |
| 20260506110507 | 24 | 276 | 0.0 | 0.0 | 0.00 | 0.00 | 0.00 | 99 | 1020.6 |
| 20260506110004 | 24 | 276 | 0.0 | 0.0 | 0.00 | 0.00 | 0.00 | 99 | 1020.6 |
| 20260506105459 | 24 | 276 | 0.0 | 0.0 | 0.00 | 0.00 | 0.00 | 99 | 1020.7 |
| 20260506104957 | 24 | 276 | 0.0 | 0.0 | 0.00 | 0.00 | 0.00 | 99 | 1020.9 |
| 20260506104455 | 24 | 276 | 0.0 | 0.0 | 0.00 | 0.00 | 0.00 | 99 | 1020.8 |
| 20260506103953 | 24 | 276 | 0.0 | 0.0 | 0.00 | 0.00 | 0.00 | 99 | 1020.9 |
| 20260506103449 | 24 | 276 | 0.0 | 0.0 | 0.00 | 0.00 | 0.00 | 99 | 1020.9 |
| 20260506102946 | 24 | 276 | 0.0 | 0.0 | 0.00 | 0.00 | 0.00 | 99 | 1020.9 |
| 20260506102444 | 24 | 276 | 0.0 | 0.0 | 0.00 | 0.00 | 0.00 | 99 | 1020.9 |
| 20260506101942 | 24 | 276 | 0.0 | 0.0 | 0.00 | 0.00 | 0.00 | 99 | 1021.2 |
| 20260506101438 | 24 | 276 | 0.0 | 0.0 | 0.00 | 0.00 | 0.00 | 99 | 1020.9 |
| 20260506100935 | 24 | 276 | 0.0 | 0.0 | 0.00 | 0.00 | 0.00 | 99 | 1020.8 |
| 20260506100433 | 24 | 276 | 0.0 | 0.0 | 0.00 | 0.00 | 0.00 | 99 | 1021.3 |
| 20260506095931 | 24 | 276 | 0.0 | 0.0 | 0.00 | 0.00 | 0.00 | 99 | 1020.8 |
| 20260506095429 | 24 | 276 | 0.0 | 0.0 | 0.00 | 0.00 | 0.00 | 99 | 1021.1 |
| 20260506094925 | 24 | 276 | 0.0 | 0.0 | 0.00 | 0.00 | 0.00 | 99 | 1020.9 |
| 20260506094424 | 24 | 276 | 0.0 | 0.0 | 0.00 | 0.00 | 0.00 | 99 | 1021.2 |
| 20260506093921 | 24 | 276 | 0.0 | 0.0 | 0.00 | 0.00 | 0.00 | 99 | 1020.8 |
| 20260506093419 | 24 | 276 | 0.0 | 0.0 | 0.00 | 0.00 | 0.00 | 99 | 1020.7 |
| 20260506092917 | 24 | 276 | 0.0 | 0.0 | 0.00 | 0.00 | 0.00 | 99 | 1020.8 |
| 20260506092415 | 24 | 276 | 0.0 | 0.0 | 0.00 | 0.00 | 0.00 | 99 | 1020.7 |
| 20260506091910 | 24 | 276 | 0.0 | 0.0 | 0.00 | 0.00 | 0.00 | 99 | 1020.8 |
| 20260506091409 | 25 | 276 | 0.0 | 0.0 | 0.00 | 0.00 | 0.00 | 99 | 1020.7 |
| 20260506090906 | 25 | 276 | 0.0 | 0.0 | 0.00 | 0.00 | 0.00 | 99 | 1020.8 |
| 20260506090403 | 25 | 276 | 0.0 | 0.0 | 0.00 | 0.00 | 0.00 | 99 | 1020.4 |
| 20260506085900 | 25 | 276 | 0.0 | 0.0 | 0.00 | 0.00 | 0.00 | 99 | 1020.9 |
| 20260506085356 | 25 | 276 | 0.0 | 0.0 | 0.00 | 0.00 | 0.00 | 99 | 1020.7 |
| 20260506084853 | 25 | 276 | 0.0 | 0.0 | 0.00 | 0.00 | 0.00 | 99 | 1020.6 |
| 20260506084350 | 25 | 276 | 0.0 | 0.0 | 0.00 | 0.00 | 0.00 | 99 | 1020.6 |
| 20260506083846 | 25 | 276 | 0.0 | 0.0 | 0.00 | 0.00 | 0.00 | 99 | 1020.8 |
| 20260506083344 | 25 | 276 | 0.0 | 0.0 | 0.00 | 0.00 | 0.00 | 99 | 1020.7 |
| 20260506082841 | 25 | 275 | 0.0 | 0.0 | 0.00 | 0.00 | 0.00 | 99 | 1021.1 |
| 20260506082337 | 25 | 275 | 0.0 | 0.0 | 0.00 | 0.00 | 0.00 | 99 | 1020.8 |
| 20260506081833 | 25 | 275 | 0.0 | 0.0 | 0.00 | 0.00 | 0.00 | 99 | 1020.9 |
| 20260506081332 | 25 | 275 | 0.0 | 0.0 | 0.00 | 0.00 | 0.00 | 99 | 1020.9 |
| 20260506080829 | 25 | 275 | 0.0 | 0.0 | 0.00 | 0.00 | 0.00 | 99 | 1021.2 |
| 20260506080325 | 25 | 275 | 0.0 | 0.0 | 0.00 | 0.00 | 0.00 | 99 | 1020.9 |
| 20260506073304 | 25 | 275 | 0.0 | 0.0 | 0.00 | 0.00 | 0.00 | 99 | 1020.8 |
| 20260506072800 | 26 | 275 | 0.0 | 0.0 | 0.00 | 0.00 | 0.00 | 99 | 1020.6 |
| 20260506072258 | 26 | 274 | 0.0 | 0.0 | 0.00 | 0.00 | 0.00 | 99 | 1020.8 |
| 20260506071755 | 26 | 274 | 0.0 | 0.0 | 0.00 | 0.00 | 0.00 | 99 | 1020.9 |
| 20260506071253 | 26 | 274 | 0.0 | 0.0 | 0.00 | 0.00 | 0.00 | 99 | 1021.3 |
| 20260506070744 | 26 | 274 | 0.0 | 0.0 | 0.00 | 0.00 | 0.00 | 99 | 1020.9 |
| 20260506070241 | 26 | 274 | 0.0 | 0.0 | 0.00 | 0.00 | 0.00 | 99 | 1021.3 |
| 20260506062218 | 26 | 274 | 0.0 | 0.0 | 0.00 | 0.00 | 0.00 | 99 | 1020.4 |
| 20260506061714 | 26 | 274 | 0.0 | 0.0 | 0.00 | 0.00 | 0.00 | 99 | 1020.4 |
| 20260506061212 | 26 | 274 | 0.0 | 0.0 | 0.00 | 0.00 | 0.00 | 99 | 1020.2 |
| 20260506060711 | 26 | 274 | 0.0 | 0.0 | 0.00 | 0.00 | 0.00 | 99 | 1020.3 |
| 20260506060207 | 26 | 274 | 0.0 | 0.0 | 0.00 | 0.00 | 0.00 | 99 | 1020.4 |
| 20260506051139 | 26 | 275 | 0.0 | 0.0 | 0.00 | 0.02 | 0.02 | 99 | 1020.6 |
| 20260506050638 | 26 | 275 | 0.0 | 0.0 | 0.00 | 0.02 | 0.02 | 99 | 1019.9 |
| 20260506050134 | 26 | 275 | 0.0 | 0.0 | 0.00 | 0.02 | 0.02 | 99 | 1020.2 |
| 20260506045126 | 26 | 275 | 0.0 | 0.0 | 0.00 | 0.02 | 0.02 | 99 | 1020.3 |
| 20260506044625 | 26 | 275 | 0.0 | 0.0 | 0.00 | 0.02 | 0.02 | 99 | 1020.3 |
| 20260506044122 | 26 | 275 | 0.0 | 0.0 | 0.00 | 0.02 | 0.02 | 99 | 1020.3 |
| 20260506043619 | 26 | 275 | 0.0 | 0.0 | 0.00 | 0.02 | 0.02 | 99 | 1020.4 |
| 20260506043117 | 26 | 275 | 0.0 | 0.0 | 0.00 | 0.02 | 0.02 | 99 | 1020.3 |
| 20260506042616 | 26 | 275 | 0.0 | 0.0 | 0.00 | 0.02 | 0.02 | 99 | 1020.2 |
| 20260506042113 | 26 | 275 | 0.0 | 0.0 | 0.00 | 0.02 | 0.02 | 99 | 1020.2 |
| 20260506041612 | 26 | 275 | 0.0 | 0.0 | 0.00 | 0.02 | 0.02 | 99 | 1020.2 |
| 20260506041108 | 26 | 275 | 0.0 | 0.0 | 0.00 | 0.02 | 0.02 | 99 | 1020.2 |
| 20260506040606 | 26 | 276 | 0.0 | 0.0 | 0.00 | 0.02 | 0.02 | 99 | 1020.6 |
| 20260506035559 | 26 | 276 | 0.0 | 0.0 | 0.00 | 0.02 | 0.02 | 99 | 1020.2 |
| 20260506035056 | 26 | 276 | 0.0 | 0.0 | 0.00 | 0.02 | 0.02 | 99 | 1019.9 |
| 20260506034553 | 26 | 276 | 0.0 | 0.0 | 0.00 | 0.02 | 0.02 | 99 | 1019.9 |
| 20260506034050 | 26 | 276 | 0.0 | 0.0 | 0.00 | 0.02 | 0.02 | 99 | 1020.1 |
| 20260506033547 | 26 | 276 | 0.0 | 0.0 | 0.00 | 0.02 | 0.02 | 99 | 1020.1 |
| 20260506033044 | 26 | 276 | 0.0 | 0.0 | 0.00 | 0.02 | 0.02 | 99 | 1019.8 |
| 20260506032542 | 26 | 276 | 0.0 | 0.0 | 0.00 | 0.02 | 0.02 | 99 | 1019.8 |
| 20260506032038 | 26 | 276 | 0.0 | 0.0 | 0.00 | 0.02 | 0.02 | 99 | 1019.8 |
| 20260506031536 | 26 | 276 | 0.0 | 0.0 | 0.00 | 0.02 | 0.02 | 99 | 1019.9 |
| 20260506031033 | 26 | 276 | 0.0 | 0.0 | 0.00 | 0.02 | 0.02 | 99 | 1019.7 |
| 20260506030531 | 26 | 276 | 0.0 | 0.0 | 0.00 | 0.02 | 0.02 | 99 | 1019.4 |
| 20260506030028 | 26 | 276 | 0.0 | 0.0 | 0.00 | 0.02 | 0.02 | 99 | 1019.3 |
| 20260506025525 | 26 | 276 | 0.0 | 0.0 | 0.00 | 0.02 | 0.02 | 99 | 1019.6 |
| 20260506025021 | 26 | 276 | 0.0 | 0.0 | 0.00 | 0.02 | 0.02 | 99 | 1019.2 |
| 20260506024518 | 26 | 277 | 0.0 | 0.0 | 0.00 | 0.02 | 0.02 | 99 | 1019.2 |
| 20260506024014 | 26 | 276 | 0.0 | 0.0 | 0.00 | 0.02 | 0.02 | 99 | 1019.3 |
| 20260506023510 | 26 | 277 | 0.0 | 0.0 | 0.00 | 0.02 | 0.02 | 99 | 1019.0 |
| 20260506023008 | 26 | 277 | 0.0 | 0.0 | 0.00 | 0.02 | 0.02 | 99 | 1019.2 |
| 20260506022505 | 26 | 277 | 0.0 | 0.0 | 0.00 | 0.02 | 0.02 | 99 | 1019.0 |
| 20260506022003 | 26 | 277 | 0.0 | 0.0 | 0.00 | 0.02 | 0.02 | 99 | 1018.9 |
| 20260506021500 | 26 | 277 | 0.0 | 0.0 | 0.00 | 0.02 | 0.02 | 99 | 1018.7 |
| 20260506020957 | 26 | 277 | 0.0 | 0.0 | 0.00 | 0.02 | 0.02 | 99 | 1019.0 |
| 20260506020455 | 26 | 277 | 0.0 | 0.0 | 0.00 | 0.02 | 0.02 | 99 | 1018.9 |
| 20260506015951 | 26 | 278 | 0.0 | 0.0 | 0.00 | 0.02 | 0.02 | 99 | 1018.9 |
| 20260506015449 | 26 | 247 | 0.0 | 0.0 | 0.00 | 0.02 | 0.02 | 99 | 1018.7 |
| 20260506014946 | 27 | 234 | 0.0 | 0.0 | 0.00 | 0.02 | 0.02 | 99 | 1018.4 |
| 20260506014443 | 27 | 229 | 0.0 | 0.0 | 0.00 | 0.02 | 0.02 | 99 | 1018.2 |
| 20260506013939 | 27 | 232 | 0.0 | 0.0 | 0.00 | 0.02 | 0.02 | 99 | 1018.4 |
| 20260506013438 | 26 | 232 | 0.0 | 0.0 | 0.00 | 0.02 | 0.02 | 99 | 1018.8 |
| 20260506012933 | 27 | 0 | 0.0 | 0.0 | 0.00 | 0.02 | 0.02 | 99 | 1018.3 |
| 20260506012430 | 27 | 334 | 0.0 | 0.0 | 0.00 | 0.02 | 0.02 | 99 | 1018.3 |
| 20260506011927 | 27 | 270 | 0.9 | 0.9 | 0.00 | 0.02 | 0.02 | 99 | 1018.2 |
| 20260506011424 | 27 | 284 | 0.0 | 0.0 | 0.00 | 0.02 | 0.02 | 99 | 1018.3 |
| 20260506010921 | 27 | 228 | 0.0 | 0.0 | 0.00 | 0.02 | 0.02 | 99 | 1018.2 |
| 20260506010420 | 28 | 231 | 0.0 | 0.0 | 0.00 | 0.02 | 0.02 | 99 | 1018.3 |
| 20260506005915 | 28 | 233 | 0.0 | 0.0 | 0.00 | 0.02 | 0.02 | 99 | 1018.4 |
| 20260506005414 | 28 | 239 | 0.0 | 0.9 | 0.00 | 0.02 | 0.02 | 99 | 1018.3 |
| 20260506004909 | 28 | 346 | 1.7 | 1.7 | 0.00 | 0.02 | 0.02 | 99 | 1018.3 |
| 20260506004407 | 28 | 284 | 1.7 | 1.7 | 0.00 | 0.02 | 0.02 | 99 | 1017.9 |
| 20260506003902 | 28 | 21 | 1.7 | 1.7 | 0.00 | 0.02 | 0.02 | 99 | 1017.9 |
| 20260506003359 | 28 | 8 | 0.0 | 0.9 | 0.00 | 0.02 | 0.02 | 99 | 1018.0 |
| 20260506002856 | 28 | 279 | 0.0 | 0.0 | 0.00 | 0.02 | 0.02 | 99 | 1017.9 |
| 20260506002352 | 28 | 322 | 0.9 | 1.7 | 0.00 | 0.02 | 0.02 | 99 | 1018.2 |
| 20260506001848 | 29 | 233 | 0.0 | 0.0 | 0.00 | 0.02 | 0.02 | 99 | 1018.0 |
| 20260506001344 | 29 | 233 | 0.9 | 0.9 | 0.00 | 0.02 | 0.02 | 99 | 1017.9 |
| 20260506000842 | 29 | 333 | 1.7 | 1.7 | 0.00 | 0.02 | 0.02 | 99 | 1017.7 |
| 20260506000340 | 30 | 278 | 1.7 | 2.6 | 0.00 | 0.02 | 0.02 | 99 | 1017.7 |
| 20260505235836 | 29 | 218 | 0.0 | 0.0 | 0.00 | 0.02 | 0.02 | 99 | 1017.5 |
| 20260505235334 | 29 | 326 | 0.0 | 0.9 | 0.00 | 0.02 | 0.02 | 99 | 1017.7 |
| 20260505234830 | 30 | 6 | 0.9 | 1.7 | 0.00 | 0.02 | 0.02 | 99 | 1017.7 |
| 20260505234328 | 30 | 268 | 0.9 | 0.9 | 0.00 | 0.02 | 0.02 | 99 | 1017.5 |
| 20260505233825 | 29 | 232 | 0.9 | 0.9 | 0.00 | 0.02 | 0.02 | 99 | 1017.4 |
| 20260505233323 | 30 | 227 | 0.9 | 0.9 | 0.00 | 0.02 | 0.02 | 99 | 1017.4 |
| 20260505232820 | 30 | 312 | 0.9 | 0.9 | 0.00 | 0.02 | 0.02 | 99 | 1017.4 |
| 20260505232317 | 30 | 302 | 2.6 | 4.3 | 0.00 | 0.02 | 0.02 | 99 | 1017.4 |
| 20260505231814 | 30 | 47 | 1.7 | 1.7 | 0.00 | 0.02 | 0.02 | 99 | 1017.5 |
| 20260505231312 | 30 | 265 | 0.0 | 0.9 | 0.00 | 0.02 | 0.02 | 99 | 1017.8 |
| 20260505230809 | 30 | 252 | 2.6 | 2.6 | 0.00 | 0.02 | 0.02 | 99 | 1017.7 |
| 20260505230306 | 30 | 304 | 2.6 | 2.6 | 0.00 | 0.02 | 0.02 | 99 | 1017.3 |
| 20260505225803 | 31 | 321 | 0.9 | 0.9 | 0.00 | 0.02 | 0.02 | 99 | 1017.0 |
| 20260505225300 | 31 | 288 | 3.5 | 4.3 | 0.00 | 0.02 | 0.02 | 99 | 1016.6 |
| 20260505224755 | 32 | 296 | 2.6 | 2.6 | 0.00 | 0.02 | 0.02 | 99 | 1017.0 |
| 20260505224254 | 32 | 352 | 2.6 | 2.6 | 0.00 | 0.02 | 0.02 | 99 | 1016.9 |
| 20260505223751 | 32 | 258 | 2.6 | 2.6 | 0.00 | 0.02 | 0.02 | 99 | 1017.4 |
| 20260505223247 | 32 | 220 | 0.0 | 0.9 | 0.00 | 0.02 | 0.02 | 99 | 1017.4 |
| 20260505222743 | 32 | 228 | 0.0 | 0.0 | 0.00 | 0.02 | 0.02 | 99 | 1017.0 |
| 20260505222239 | 32 | 235 | 0.9 | 0.9 | 0.00 | 0.02 | 0.02 | 99 | 1017.0 |
| 20260505221736 | 32 | 236 | 2.6 | 2.6 | 0.00 | 0.02 | 0.02 | 99 | 1016.9 |
| 20260505221233 | 32 | 226 | 0.0 | 0.0 | 0.00 | 0.02 | 0.02 | 99 | 1016.8 |
| 20260505220730 | 32 | 349 | 1.7 | 1.7 | 0.00 | 0.02 | 0.02 | 99 | 1016.5 |
| 20260505220228 | 32 | 313 | 0.9 | 1.7 | 0.00 | 0.02 | 0.02 | 99 | 1016.9 |
| 20260505215726 | 32 | 227 | 0.0 | 0.0 | 0.00 | 0.02 | 0.02 | 99 | 1016.6 |
| 20260505215223 | 32 | 74 | 2.6 | 2.6 | 0.07 | 0.02 | 0.02 | 99 | 1016.6 |
| 20260505214721 | 33 | 281 | 0.0 | 0.0 | 0.07 | 0.02 | 0.02 | 99 | 1016.8 |
| 20260505214218 | 33 | 231 | 0.9 | 0.9 | 0.00 | 0.01 | 0.01 | 99 | 1016.8 |
| 20260505213715 | 33 | 223 | 0.0 | 0.0 | 0.00 | 0.01 | 0.01 | 99 | 1016.9 |
| 20260505213212 | 32 | 266 | 0.9 | 0.9 | 0.00 | 0.01 | 0.01 | 99 | 1016.8 |
| 20260505212708 | 33 | 342 | 2.6 | 2.6 | 0.00 | 0.01 | 0.01 | 99 | 1016.9 |
| 20260505212206 | 32 | 68 | 1.7 | 1.7 | 0.00 | 0.01 | 0.01 | 99 | 1016.8 |